Location: Ladrillo (historical)
(32.8195°N, 117.2231°W)
Time: 12:29:51
(UTC+00:00)

Tiros 1 - Visible Passes

Search period start: 07 March 2021 00:00
Search period end: 17 March 2021 00:00
Orbit: 630 x 664 km, 48.4° (Epoch: 07 March)

Date Brightness Start Highest point End Pass type
(mag) Time Alt. Az. Time Alt. Az. Time Alt. Az.
07 Mar 9.6 11:58:23 13° N 11:58:23 13° N 12:00:22 10° NNE visible
07 Mar 9.5 13:39:16 10° NNW 13:42:02 15° NNE 13:44:48 10° NE visible
08 Mar 9.6 12:23:07 10° NNW 12:24:58 12° N 12:26:53 10° NNE visible
09 Mar 9.6 12:49:05 10° NNW 12:51:45 14° NNE 12:54:24 10° NE visible
10 Mar 9.8 11:34:57 12° N 11:34:57 12° N 11:36:34 10° NNE visible
10 Mar 9.3 13:14:43 10° NNW 13:18:23 21° NNE 13:22:02 10° ENE visible
11 Mar 9.6 11:59:44 12° N 12:01:28 14° NNE 12:04:01 10° NE visible
12 Mar 9.4 12:24:36 10° NNW 12:28:07 20° NNE 12:31:40 10° ENE visible
13 Mar 9.9 11:11:51 13° NNE 11:11:51 13° NNE 11:13:37 10° NE visible
13 Mar 8.7 12:50:09 10° NW 12:54:32 34° NNE 12:58:55 10° E visible
14 Mar 9.4 11:36:52 18° N 11:37:51 19° NNE 11:41:17 10° ENE visible
14 Mar 7.5 13:15:53 10° NW 13:20:42 71° NE 13:25:29 10° ESE visible
15 Mar 8.7 12:02:00 21° NNW 12:04:18 32° NNE 12:08:35 10° E visible
16 Mar 10.0 10:49:36 14° NE 10:49:36 14° NE 10:50:53 10° ENE visible
16 Mar 7.5 12:27:18 21° NW 12:30:29 64° NE 12:35:16 10° ESE visible
